Wetbulb
54.96 55.14 55.48 55.65 55.79 55.83 55.67 55.62 55.52 55.73 55.14 54.90 54.91 54.85 54.25 53.94 54.51 51.37 47.15 50.32 49.77 45.66 47.04 50.61 52.61 47.49 47.23 45.26 42.55 45.52 45.83 46.59 45.39 41.25 41.44 40.73 39.89 41.71 40.02 40.83 40.17 39.24 37.98 38.40 39.19 37.61 36.72 53.04 50.61 44.37 46.66 50.82 53.23 53.94
55.02 54.96 55.14 55.34 55.50 55.54 55.59 55.52 55.42 55.63 55.18 54.80 54.62 54.62 54.52 54.15 53.94 52.83 45.05 49.95 51.41 47.84 47.79 51.85 53.86 54.96 53.23 50.55 46.38 44.95 45.13 46.45 47.04 43.18 42.52 41.72 40.88 40.79 38.73 36.50 43.20 38.52 41.91 39.65 42.12 41.45 48.78 51.43 50.77 52.02 51.92 50.71 52.95 53.47
54.55 54.63 54.88 54.94 55.04 55.24 55.34 55.36 55.36 55.56 55.00 54.59 54.52 54.46 53.89 53.88 53.65 51.86 45.93 46.91 48.89 47.32 47.32 47.93 49.91 54.67 52.63 52.48 51.76 45.21 46.23 48.53 47.29 48.13 44.15 42.50 40.89 42.63 38.33 39.69 40.87 44.33 46.58 43.28 42.82 45.84 48.40 51.12 53.40 52.64 53.11 52.29 53.81 54.14
54.23 54.47 54.66 54.80 54.90 54.96 55.20 55.14 55.14 55.42 55.00 54.35 54.06 54.19 53.95 53.67 53.36 52.45 45.61 47.28 47.18 47.70 43.18 47.41 53.91 51.70 54.91 53.18 53.62 52.08 50.56 50.07 49.00 48.45 44.53 42.61 41.64 45.20 41.53 43.34 42.36 46.82 47.04 44.42 43.60 46.83 49.36 51.33 51.88 52.27 53.28 54.00 53.75 54.49
53.87 54.13 54.46 54.54 54.56 54.86 55.14 54.98 54.86 55.10 54.80 54.33 53.98 54.02 53.76 53.51 52.92 50.84 48.01 48.94 50.99 46.62 42.11 43.42 50.04 52.47 54.55 53.79 54.33 52.49 50.31 48.38 47.30 45.47 43.74 42.42 44.81 44.90 43.64 43.55 43.79 48.03 45.51 43.16 42.54 47.52 47.43 48.91 51.71 53.21 52.43 52.39 53.23 53.20
53.75 54.07 54.18 54.28 54.28 54.60 54.76 54.64 54.72 54.82 54.45 54.14 54.06 53.98 53.49 52.97 52.56 48.30 49.31 52.07 51.60 50.87 44.67 41.76 49.54 50.85 51.81 52.75 52.48 50.85 50.33 48.95 48.61 46.37 45.18 46.16 47.39 46.02 41.32 40.01 45.87 48.26 49.61 49.19 46.93 50.05 50.95 51.78 53.55 54.16 52.88 53.35 54.23 54.32
53.96 53.90 53.92 53.90 54.20 54.36 54.36 54.34 54.48 54.34 53.90 53.55 53.68 53.22 52.75 52.22 47.81 46.39 48.84 51.38 51.12 49.93 47.11 43.69 44.11 51.04 53.92 51.05 49.86 49.35 49.69 49.55 49.02 46.80 45.95 45.95 48.63 46.80 42.32 39.87 46.80 49.24 50.43 51.11 51.95 51.13 48.90 50.77 50.43 53.29 53.52 54.96 55.88 56.86
53.38 53.60 53.74 53.76 54.08 54.12 54.32 54.26 54.12 53.62 53.35 53.18 52.67 52.33 52.34 52.21 50.75 48.26 51.08 51.65 50.63 47.87 48.55 42.65 44.35 47.77 51.15 47.54 47.02 48.96 47.27 47.28 47.81 47.70 48.04 47.26 48.61 46.20 41.30 45.73 47.86 50.05 51.19 51.20 51.31 51.70 51.66 52.92 53.50 54.05 55.68 56.08 55.61 55.58
53.38 53.44 53.62 53.70 53.92 54.12 53.93 54.04 53.54 53.03 52.44 51.85 52.10 52.67 49.56 48.87 48.29 52.34 56.98 54.45 50.08 49.24 44.11 44.97 43.01 45.11 50.92 47.24 47.10 48.23 47.08 42.82 47.05 43.83 45.66 46.66 44.04 40.94 44.17 46.54 47.55 49.01 48.94 50.25 52.27 52.64 53.30 53.32 53.76 55.01 55.65 55.75 55.36 55.42
53.46 53.34 53.40 53.65 53.68 53.82 54.20 53.53 52.99 52.05 51.38 52.22 49.57 49.09 49.94 50.48 56.64 55.49 51.81 48.19 47.61 47.45 46.61 42.99 46.53 44.28 47.16 45.51 44.75 44.47 44.91 42.91 40.90 45.22 48.76 44.70 43.36 47.77 48.94 49.31 49.54 50.67 51.67 52.45 50.47 51.11 52.93 53.29 54.34 54.90 55.95 56.93 56.38 56.04
53.02 53.28 53.35 53.47 53.50 53.86 53.75 52.87 52.21 51.26 51.66 47.49 43.77 44.91 47.27 53.08 48.36 46.28 44.55 43.93 45.26 43.77 46.02 46.49 46.60 43.84 47.91 43.13 42.16 44.99 42.04 42.62 40.09 43.45 44.28 41.65 41.80 47.07 50.20 50.37 51.52 52.07 52.59 53.47 54.29 54.55 54.67 55.34 55.16 55.94 56.42 57.29 57.94 57.56
53.08 53.12 53.12 53.22 53.60 53.96 53.29 52.48 51.54 48.63 46.54 45.94 45.60 47.23 46.93 46.48 45.05 43.58 42.98 45.21 45.07 43.15 46.88 45.25 46.07 45.85 45.96 47.93 43.14 43.98 41.99 43.42 39.15 47.70 44.18 39.79 44.84 50.50 49.90 50.78 52.23 52.48 53.74 54.93 56.25 56.27 56.63 57.23 57.77 57.79 57.37 56.93 57.70 59.25
52.88 52.82 52.94 53.08 53.54 53.54 53.04 52.56 51.77 51.55 50.70 49.28 46.77 46.88 47.42 45.52 37.36 41.76 41.05 44.08 45.43 47.98 47.93 46.92 45.00 45.71 46.94 46.25 43.35 42.63 40.57 42.03 46.53 41.44 42.26 44.84 46.61 48.83 49.40 51.04 52.85 54.62 55.98 56.38 56.48 57.57 57.07 57.31 58.43 57.89 57.13 57.60 58.22 58.88
52.49 52.65 52.86 53.14 53.42 53.41 53.00 52.70 52.13 50.78 47.34 46.25 46.90 37.34 42.74 41.11 42.40 45.36 44.41 45.94 48.31 51.25 47.74 46.34 43.42 43.17 45.22 44.53 45.00 39.84 43.01 44.41 41.29 37.00 38.79 43.78 46.80 48.74 50.25 51.62 52.76 53.92 55.63 55.61 55.89 56.32 56.05 57.12 57.65 57.81 58.67 59.56 59.53 59.33
52.35 52.73 52.86 52.47 52.57 52.47 52.60 52.13 51.42 48.24 45.67 45.08 46.01 37.05 42.03 46.19 48.34 49.54 50.14 50.66 50.45 50.19 48.27 44.02 43.55 43.70 42.95 44.89 43.38 42.02 40.70 40.97 42.57 41.56 43.46 46.18 48.06 48.67 49.80 51.69 53.22 55.50 53.89 54.76 54.80 54.59 55.44 56.51 57.11 57.19 58.90 58.54 58.89 59.37
52.62 51.87 50.92 52.15 51.81 51.85 51.05 49.85 49.10 48.56 48.40 46.85 45.02 42.03 44.27 43.30 44.98 45.84 48.36 48.06 50.56 49.87 48.18 45.08 40.80 39.53 39.56 41.16 40.19 41.25 40.73 39.90 43.11 44.95 45.89 47.99 48.12 48.66 49.81 51.75 54.00 54.04 52.77 54.98 55.18 55.69 55.53 55.44 56.01 56.27 56.78 57.13 56.91 58.61
50.76 49.27 51.03 51.20 50.78 50.16 50.02 45.97 47.67 47.55 46.48 45.35 43.03 45.41 44.65 44.86 44.94 44.89 47.58 46.47 50.06 46.96 41.72 41.45 38.42 38.32 42.60 39.65 40.05 43.81 40.63 43.55 47.18 47.35 47.39 48.82 48.38 49.08 50.85 52.74 54.92 55.99 56.15 55.38 55.21 55.20 55.18 56.03 55.87 56.03 55.18 55.58 55.69 57.06
49.00 48.98 51.65 50.97 49.28 47.90 47.47 46.80 46.57 47.16 44.33 43.89 41.47 43.76 48.16 49.36 47.22 46.88 49.98 49.51 47.29 46.43 44.82 43.52 43.18 39.10 37.48 37.31 37.52 42.29 44.61 46.67 46.74 46.80 48.19 48.76 50.23 51.05 53.07 52.95 56.09 56.35 55.77 55.59 55.59 55.11 55.44 54.39 53.97 53.63 53.96 54.75 54.22 53.86
50.01 50.19 51.89 51.62 48.95 42.73 43.73 47.71 47.88 42.76 44.29 43.50 44.48 47.60 47.63 48.87 50.09 50.12 48.03 50.16 49.00 50.43 46.96 43.42 40.66 38.72 39.01 42.02 42.61 43.42 45.24 46.04 46.34 48.90 48.73 49.28 50.82 51.96 54.03 55.32 56.59 56.21 56.45 55.91 54.78 53.97 54.75 54.96 56.41 54.69 53.61 53.29 52.08 52.48
51.40 51.53 51.42 51.78 49.26 43.79 45.58 46.64 48.74 44.88 41.78 43.77 45.37 44.70 44.98 45.40 46.68 46.96 47.08 47.19 48.52 48.39 45.86 43.78 42.15 43.64 42.74 44.25 45.78 46.42 47.48 47.84 48.51 47.26 46.94 49.65 53.53 52.69 53.60 54.73 54.38 54.94 54.73 54.77 53.68 53.20 55.32 54.37 55.00 54.72 54.82 52.75 51.51 50.92
49.37 49.99 51.20 48.65 47.02 44.50 44.46 43.72 43.89 46.02 44.56 42.37 44.36 43.96 43.12 45.49 44.39 44.69 46.76 47.68 45.28 43.67 42.51 44.50 44.86 47.43 51.85 50.92 51.10 50.67 49.59 49.69 48.44 48.07 48.24 49.80 53.73 53.37 53.93 54.51 55.08 54.92 53.97 53.16 52.29 53.30 52.08 53.04 55.69 55.63 54.51 55.85 53.40 52.32
48.41 50.67 46.52 50.76 45.88 46.80 44.82 45.28 43.42 46.03 43.26 42.52 42.96 43.49 42.60 44.05 44.80 44.14 46.04 44.18 43.06 47.30 47.83 47.64 48.68 48.94 48.96 49.87 50.78 51.74 52.22 51.56 50.24 50.42 49.46 51.36 52.95 53.65 53.46 54.23 53.92 53.40 53.46 52.70 52.81 51.92 51.50 51.92 53.21 54.18 52.80 53.18 53.58 54.29
48.45 47.86 46.68 46.88 44.64 42.45 39.40 46.74 43.10 44.45 42.26 43.15 44.70 43.23 43.83 44.47 45.92 48.00 44.51 46.66 47.19 51.05 51.45 50.27 50.99 51.42 51.70 53.37 53.10 53.70 52.71 51.01 50.52 51.40 51.85 52.83 54.45 55.19 55.59 55.13 54.80 52.74 51.59 52.27 53.70 51.74 53.38 50.88 52.25 52.06 49.79 49.91 53.14 52.49
47.71 42.37 43.04 43.64 43.60 39.50 45.03 43.34 46.07 44.91 43.65 42.21 41.49 42.60 42.34 43.90 45.90 44.97 43.13 44.65 47.82 50.49 50.23 48.43 49.56 50.57 51.41 50.84 50.34 50.83 52.64 52.67 53.24 54.00 54.48 54.20 53.52 53.67 54.27 54.91 54.23 53.09 50.44 51.79 52.23 50.14 51.55 50.97 48.77 48.48 48.17 49.29 49.77 48.36
39.06 38.25 39.14 35.15 43.15 41.94 41.30 41.89 43.12 42.98 41.79 42.83 40.72 40.42 44.36 46.63 42.42 41.27 40.39 44.13 47.97 47.87 51.02 51.20 49.05 50.13 49.79 48.78 50.05 50.56 50.48 52.45 52.74 52.99 54.77 55.41 54.67 54.82 54.08 54.09 51.19 50.62 50.70 51.85 51.00 52.57 52.18 50.21 48.89 48.07 48.25 48.23 48.09 48.69
35.90 39.71 36.59 41.66 41.33 41.01 41.95 40.61 41.77 41.71 41.92 40.64 40.53 42.02 43.92 40.62 39.46 40.66 44.80 47.39 49.32 50.51 49.29 47.57 50.02 50.87 50.54 50.39 50.27 50.61 52.12 54.41 55.00 53.79 54.56 55.60 54.68 54.21 52.34 50.87 47.60 49.05 51.23 50.05 50.55 49.39 48.87 48.36 48.70 48.96 48.55 48.68 46.36 49.21
35.73 37.72 41.18 45.10 44.40 43.62 42.16 43.35 44.13 42.07 40.88 40.87 40.13 42.71 40.68 39.10 41.03 43.84 47.57 49.06 48.05 49.42 48.83 50.73 51.45 50.15 49.68 50.22 51.49 51.93 53.15 56.35 55.85 54.86 56.35 56.95 57.39 57.32 55.92 50.90 47.34 48.65 49.97 50.35 49.75 49.50 48.86 48.37 48.04 48.76 48.17 48.34 48.13 48.67
40.49 42.22 39.54 42.56 42.92 43.70 41.50 41.56 41.24 40.98 41.15 43.35 41.04 39.89 40.20 41.47 41.67 47.75 50.43 50.86 49.93 50.07 50.11 50.86 51.31 50.99 51.55 51.43 51.10 51.69 53.42 53.76 56.88 56.33 55.00 55.22 55.13 54.68 54.98 53.68 52.18 47.23 48.76 49.05 49.42 49.56 49.29 49.03 48.69 49.68 50.13 49.48 48.79 48.55
39.40 43.51 43.52 41.07 42.04 42.10 42.39 41.49 41.98 42.07 44.45 43.36 41.22 41.36 41.69 46.33 47.40 49.46 48.75 50.21 51.14 50.31 49.26 50.32 51.23 52.19 51.38 52.12 49.94 51.99 53.52 52.06 51.65 50.34 49.38 48.71 49.69 51.53 52.32 51.24 50.08 50.97 49.05 48.42 44.50 46.51 48.50 48.50 49.04 48.95 50.21 47.48 46.10 45.96
40.31 42.61 40.10 40.84 39.51 38.82 41.78 44.69 44.47 47.30 47.58 47.44 46.72 44.78 44.11 45.00 47.48 51.18 49.84 50.77 50.03 48.79 49.96 50.74 50.19 48.61 48.46 50.38 49.60 49.02 50.64 52.23 52.77 51.70 49.52 49.12 50.46 51.82 51.82 49.65 49.37 49.20 48.87 49.23 48.65 49.27 46.57 48.77 47.72 49.26 48.48 47.40 45.48 44.87
44.11 44.30 41.99 42.30 41.61 45.22 46.73 47.64 47.66 47.23 46.75 45.83 46.43 44.60 44.17 45.82 45.93 47.87 48.24 48.52 49.15 48.97 48.70 47.76 47.86 50.63 50.88 50.37 48.83 46.35 45.05 46.56 47.74 48.48 48.50 49.02 49.52 49.25 47.01 47.11 47.43 48.74 48.54 48.78 47.80 46.65 46.06 45.31 44.41 44.12 43.97 43.36 43.86 42.81
45.12 43.21 43.17 41.93 44.27 47.52 47.45 45.25 43.36 42.56 44.99 44.27 44.56 46.15 45.93 43.79 41.73 45.02 48.52 49.59 49.02 48.13 48.68 50.01 52.22 52.04 48.63 47.27 46.39 45.44 43.42 43.82 44.61 45.21 46.34 46.84 46.88 45.39 45.67 45.78 46.14 47.51 47.16 46.40 45.65 44.80 44.95 43.94 43.33 43.12 42.65 42.91 42.91 43.28
44.27 45.47 45.39 46.20 44.91 44.72 46.29 43.60 44.53 44.26 44.56 43.77 45.84 46.79 45.30 44.44 44.26 49.87 55.60 56.59 53.88 52.34 50.92 50.40 50.29 49.58 48.09 45.85 44.53 43.29 41.85 40.66 38.70 38.12 38.44 38.39 38.40 40.80 43.21 44.24 45.75 46.43 45.95 44.81 44.59 44.68 44.35 44.36 43.52 43.41 42.73 42.65 42.61 43.11
MSLP
1027.59 1027.25 1026.87 1026.42 1025.98 1025.50 1024.99 1024.51 1024.02 1023.55 1023.09 1022.56 1022.01 1021.47 1020.87 1020.30 1019.71 1019.24 1018.20 1017.35 1017.36 1017.20 1015.21 1013.93 1013.17 1013.12 1012.95 1013.16 1013.49 1013.00 1012.70 1012.46 1012.79 1013.86 1014.54 1014.67 1014.29 1013.93 1013.81 1013.51 1013.38 1013.70 1013.98 1014.16 1014.06 1013.84 1013.43 1012.58 1011.80 1012.31 1013.19 1012.64 1012.39 1012.33
1027.36 1026.99 1026.60 1026.20 1025.77 1025.30 1024.84 1024.37 1023.87 1023.40 1022.99 1022.52 1022.01 1021.52 1020.98 1020.51 1020.04 1019.56 1019.03 1017.44 1017.33 1017.42 1015.25 1013.64 1012.89 1012.45 1012.60 1012.26 1012.89 1013.26 1013.67 1013.59 1013.81 1014.61 1015.15 1015.16 1015.24 1014.81 1014.87 1014.73 1013.87 1014.34 1014.42 1014.78 1015.07 1014.56 1014.05 1013.34 1013.23 1013.18 1012.96 1012.80 1012.44 1012.23
1027.04 1026.67 1026.29 1025.91 1025.49 1025.02 1024.59 1024.13 1023.64 1023.19 1022.81 1022.37 1021.88 1021.42 1020.94 1020.50 1020.17 1020.01 1019.60 1018.66 1017.60 1017.05 1015.15 1013.68 1012.27 1011.33 1011.40 1011.60 1011.87 1012.96 1013.38 1013.15 1013.68 1013.88 1014.87 1015.36 1015.58 1015.21 1015.41 1015.14 1014.82 1014.59 1014.58 1015.13 1015.17 1014.54 1014.15 1013.41 1013.05 1012.72 1012.46 1012.33 1011.96 1011.62
1026.68 1026.32 1025.96 1025.58 1025.16 1024.74 1024.32 1023.86 1023.40 1022.96 1022.56 1022.12 1021.64 1021.22 1020.75 1020.30 1019.99 1019.81 1019.87 1018.72 1018.64 1017.82 1016.68 1014.02 1012.09 1011.76 1011.02 1011.06 1011.53 1012.00 1012.63 1012.91 1013.34 1013.84 1014.80 1015.40 1015.64 1014.80 1014.95 1014.91 1015.23 1015.19 1015.18 1015.56 1015.43 1014.66 1013.95 1012.90 1013.04 1012.83 1012.26 1011.81 1011.54 1011.26
1026.28 1025.96 1025.59 1025.20 1024.78 1024.39 1023.96 1023.50 1023.04 1022.63 1022.23 1021.78 1021.35 1020.93 1020.46 1020.02 1019.54 1019.13 1019.08 1018.33 1018.02 1018.23 1017.68 1015.50 1013.38 1011.47 1010.99 1011.21 1011.46 1011.73 1012.38 1013.18 1014.01 1014.62 1015.21 1015.28 1014.59 1014.66 1014.80 1015.14 1015.47 1015.10 1015.27 1015.68 1015.55 1014.85 1014.84 1013.53 1012.76 1012.21 1011.94 1011.54 1011.15 1010.87
1025.89 1025.59 1025.24 1024.87 1024.43 1024.00 1023.56 1023.10 1022.65 1022.26 1021.83 1021.39 1020.97 1020.55 1020.17 1019.86 1019.44 1018.99 1018.66 1017.94 1017.77 1017.85 1017.84 1016.69 1013.72 1012.02 1011.40 1011.36 1011.61 1011.97 1012.39 1013.08 1013.79 1014.59 1014.85 1014.32 1013.38 1013.86 1014.97 1015.51 1015.00 1015.04 1015.17 1015.24 1014.99 1014.48 1014.16 1013.26 1012.42 1011.84 1011.58 1010.94 1010.43 1010.07
1025.45 1025.16 1024.84 1024.50 1024.08 1023.60 1023.15 1022.70 1022.28 1021.85 1021.37 1020.89 1020.41 1019.96 1019.67 1019.63 1019.77 1019.41 1018.76 1017.90 1017.73 1018.17 1017.95 1016.99 1014.84 1012.20 1011.35 1011.48 1011.87 1012.20 1012.29 1012.78 1013.39 1014.18 1014.31 1014.17 1013.87 1014.09 1014.80 1015.28 1015.01 1015.11 1015.12 1014.90 1014.56 1014.33 1013.69 1012.79 1012.03 1011.23 1010.80 1009.94 1009.42 1008.91
1025.08 1024.75 1024.39 1024.07 1023.70 1023.27 1022.83 1022.37 1021.91 1021.38 1020.80 1020.18 1019.63 1019.19 1018.95 1018.84 1019.07 1018.59 1017.18 1016.94 1017.80 1018.19 1017.95 1017.36 1015.25 1013.01 1011.38 1012.14 1012.60 1012.06 1012.48 1012.72 1012.98 1013.19 1013.44 1013.79 1014.15 1014.55 1015.15 1015.32 1015.21 1015.02 1014.66 1014.28 1013.97 1013.73 1013.14 1012.12 1011.14 1010.52 1009.90 1009.01 1008.52 1008.05
1024.69 1024.35 1024.01 1023.67 1023.34 1022.99 1022.59 1022.10 1021.55 1020.83 1020.00 1019.28 1018.69 1018.34 1018.49 1018.42 1018.23 1017.35 1016.84 1017.13 1017.51 1018.25 1017.96 1017.20 1015.89 1014.00 1012.53 1012.94 1013.13 1012.57 1012.67 1013.32 1013.11 1013.32 1013.53 1013.96 1014.74 1015.20 1015.34 1015.26 1014.99 1014.64 1014.51 1013.98 1013.27 1012.82 1012.05 1011.32 1010.12 1009.29 1008.68 1008.10 1007.69 1007.11
1024.29 1023.93 1023.65 1023.38 1023.07 1022.75 1022.38 1021.91 1021.28 1020.39 1019.26 1018.37 1018.23 1018.42 1018.35 1017.86 1017.21 1017.16 1017.07 1017.35 1017.54 1017.63 1017.53 1017.07 1015.46 1014.67 1013.80 1013.91 1013.91 1014.04 1013.88 1014.05 1014.01 1013.87 1013.79 1014.35 1015.22 1015.27 1015.04 1014.84 1014.54 1014.13 1013.66 1013.23 1012.99 1011.93 1011.00 1010.20 1009.35 1008.26 1007.58 1007.05 1006.58 1006.14
1023.87 1023.56 1023.27 1023.10 1022.86 1022.61 1022.25 1021.83 1021.24 1020.24 1019.01 1019.12 1019.64 1019.56 1018.53 1017.45 1017.34 1017.32 1017.32 1017.26 1017.12 1017.06 1016.49 1015.65 1014.95 1014.57 1013.63 1014.23 1014.57 1014.50 1014.62 1014.58 1014.62 1014.31 1014.31 1015.07 1015.58 1015.33 1014.91 1014.52 1014.06 1013.57 1013.00 1012.41 1011.90 1011.29 1010.46 1009.64 1008.73 1007.70 1006.81 1006.20 1005.66 1005.15
1023.49 1023.26 1023.05 1022.92 1022.76 1022.51 1022.18 1021.80 1021.38 1020.92 1020.97 1021.04 1021.21 1020.52 1019.46 1018.22 1017.62 1017.40 1016.89 1016.39 1016.15 1015.59 1014.91 1014.51 1014.14 1013.90 1013.69 1013.65 1014.44 1014.56 1014.82 1014.88 1014.68 1014.04 1014.51 1015.43 1015.68 1015.18 1014.85 1014.25 1013.53 1012.95 1012.38 1011.84 1011.07 1010.48 1009.71 1008.79 1007.95 1007.12 1006.29 1005.64 1005.27 1004.73
1023.32 1023.09 1022.94 1022.75 1022.58 1022.36 1022.05 1021.78 1021.49 1021.23 1020.64 1020.56 1020.73 1020.10 1019.10 1018.08 1017.38 1016.76 1016.00 1015.40 1015.04 1014.38 1014.17 1014.06 1014.17 1013.98 1013.74 1013.87 1014.61 1014.99 1015.04 1014.69 1014.11 1014.50 1015.02 1015.71 1015.64 1015.28 1014.70 1013.91 1013.25 1012.54 1012.00 1011.21 1010.36 1009.77 1009.24 1008.34 1007.50 1006.83 1006.09 1005.27 1004.81 1004.30
1023.11 1022.93 1022.78 1022.55 1022.32 1022.11 1021.92 1021.70 1021.39 1020.99 1021.00 1020.56 1019.79 1019.42 1018.56 1017.36 1016.33 1015.43 1014.75 1014.30 1013.90 1013.69 1013.77 1013.94 1014.34 1014.36 1014.24 1014.44 1014.66 1015.06 1014.79 1014.55 1014.61 1015.07 1015.80 1015.93 1015.58 1015.25 1014.46 1013.83 1013.33 1012.68 1011.85 1011.29 1010.54 1009.91 1009.22 1008.52 1007.69 1006.91 1006.29 1005.46 1004.84 1004.25
1023.01 1022.81 1022.61 1022.26 1021.99 1021.80 1021.66 1021.45 1021.27 1021.31 1021.05 1020.25 1019.14 1018.40 1017.39 1016.20 1015.29 1014.34 1013.65 1013.74 1013.77 1013.57 1013.72 1014.12 1014.35 1014.76 1014.82 1014.81 1014.86 1015.03 1014.91 1014.64 1015.20 1015.90 1015.86 1015.63 1015.31 1014.91 1014.29 1013.71 1013.25 1012.67 1012.07 1011.41 1010.82 1010.09 1009.25 1008.77 1008.10 1007.34 1006.81 1006.12 1005.45 1004.81
1022.85 1022.61 1022.50 1022.23 1021.98 1021.73 1021.50 1021.21 1020.88 1020.96 1020.42 1019.65 1018.54 1017.68 1016.50 1015.93 1015.26 1014.56 1013.94 1014.01 1013.68 1013.85 1014.04 1014.46 1015.12 1015.45 1015.36 1015.31 1015.30 1015.06 1015.08 1015.65 1015.95 1015.81 1015.55 1015.25 1015.03 1014.65 1014.19 1013.58 1013.10 1012.57 1012.01 1011.53 1010.99 1010.23 1009.54 1009.08 1008.61 1008.05 1007.45 1006.75 1006.13 1005.46
1022.88 1022.64 1022.40 1022.22 1021.88 1021.32 1021.02 1021.38 1020.94 1020.52 1019.82 1018.78 1017.80 1016.86 1016.53 1016.00 1015.53 1014.69 1014.31 1014.16 1013.84 1014.39 1014.87 1015.10 1015.63 1015.66 1015.55 1015.74 1015.57 1015.48 1015.80 1015.77 1015.55 1015.58 1015.23 1014.94 1014.72 1014.42 1014.07 1013.41 1012.58 1012.11 1011.76 1011.27 1010.88 1010.28 1009.94 1009.33 1008.72 1008.47 1008.14 1007.56 1006.99 1006.33
1022.82 1022.46 1022.36 1022.24 1021.89 1021.34 1021.09 1021.18 1020.83 1019.92 1019.10 1018.19 1017.81 1016.84 1016.18 1015.40 1014.90 1014.53 1014.16 1013.98 1014.11 1014.33 1014.63 1015.12 1015.48 1015.69 1015.81 1015.76 1015.83 1015.90 1015.70 1015.54 1015.40 1015.21 1014.96 1014.67 1014.41 1014.06 1013.68 1013.35 1012.61 1011.93 1011.67 1011.18 1010.83 1010.36 1010.20 1009.66 1009.13 1009.02 1008.78 1008.38 1007.85 1007.23
1022.77 1022.59 1022.34 1022.25 1022.25 1022.24 1021.53 1020.70 1020.31 1019.83 1018.57 1017.89 1017.17 1016.45 1015.82 1015.15 1014.38 1014.16 1014.19 1013.89 1014.05 1014.16 1014.60 1015.10 1015.68 1015.90 1015.88 1015.43 1015.49 1015.51 1015.38 1015.47 1015.35 1014.98 1014.60 1014.29 1014.10 1013.85 1013.50 1013.09 1012.59 1011.97 1011.69 1011.37 1010.60 1010.22 1010.01 1009.69 1009.40 1009.30 1009.14 1008.96 1008.67 1008.27
1022.59 1022.27 1022.06 1022.04 1022.10 1022.15 1021.24 1020.10 1019.56 1019.47 1018.63 1017.61 1016.97 1016.53 1016.09 1015.48 1014.62 1014.21 1014.07 1014.00 1014.06 1014.54 1015.76 1015.76 1015.56 1014.98 1014.93 1014.87 1014.63 1014.82 1014.99 1015.03 1015.04 1014.95 1014.61 1014.23 1014.01 1013.73 1013.05 1012.59 1012.20 1011.79 1011.32 1010.81 1010.42 1009.68 1009.77 1009.58 1009.44 1009.29 1009.12 1009.15 1009.05 1008.94
1022.47 1022.06 1021.75 1021.95 1021.94 1021.95 1021.37 1020.23 1019.49 1018.83 1018.24 1017.76 1016.94 1016.55 1015.90 1015.02 1014.72 1014.45 1014.02 1013.74 1014.33 1014.74 1015.35 1015.03 1014.72 1014.34 1014.22 1014.35 1014.19 1014.32 1014.72 1014.69 1014.78 1014.74 1014.53 1014.29 1014.09 1013.74 1012.83 1012.31 1011.69 1011.32 1010.95 1010.55 1010.38 1009.80 1009.59 1009.64 1009.43 1009.27 1009.22 1009.20 1009.17 1009.00
1022.37 1021.93 1022.01 1021.79 1021.87 1021.23 1020.90 1019.94 1019.55 1018.70 1018.46 1017.51 1016.97 1016.21 1015.91 1015.21 1014.58 1014.16 1013.70 1014.14 1014.50 1014.44 1014.62 1014.67 1014.49 1014.31 1014.36 1014.29 1013.99 1013.64 1013.69 1014.16 1014.23 1014.13 1013.90 1013.83 1014.04 1013.91 1012.80 1012.53 1012.17 1011.46 1010.81 1010.26 1009.87 1009.78 1009.53 1009.30 1009.14 1009.18 1009.21 1009.26 1009.18 1009.14
1022.33 1022.27 1022.08 1021.81 1021.71 1021.27 1020.72 1019.43 1019.20 1018.40 1017.93 1017.21 1016.44 1015.94 1015.19 1014.64 1014.02 1013.50 1014.02 1014.36 1014.53 1014.28 1014.22 1014.28 1014.21 1013.98 1013.81 1013.56 1013.51 1013.52 1013.44 1013.60 1013.76 1013.71 1013.52 1013.57 1013.61 1013.41 1012.83 1012.50 1011.99 1011.30 1010.30 1009.67 1009.56 1009.63 1009.42 1009.31 1009.38 1009.42 1009.24 1009.24 1009.23 1009.33
1022.58 1022.63 1022.17 1021.74 1021.50 1020.89 1019.97 1019.10 1018.48 1018.08 1017.38 1016.97 1016.48 1015.91 1015.21 1014.52 1013.98 1013.95 1014.27 1014.52 1014.42 1014.38 1014.38 1014.41 1014.35 1014.20 1013.77 1013.50 1013.47 1013.19 1012.99 1013.08 1013.23 1013.18 1013.02 1013.10 1013.18 1012.85 1012.50 1011.96 1011.34 1010.73 1010.28 1009.85 1009.44 1009.54 1009.56 1009.80 1009.63 1009.69 1009.74 1009.76 1009.75 1009.83
1023.21 1022.79 1022.40 1021.51 1020.89 1020.52 1019.68 1018.71 1017.96 1017.54 1017.12 1016.64 1016.20 1015.56 1014.92 1014.35 1014.30 1014.21 1014.51 1014.87 1014.73 1014.72 1014.60 1014.43 1014.54 1014.43 1014.27 1013.91 1013.39 1012.98 1012.90 1013.03 1013.09 1012.96 1012.49 1012.55 1012.69 1012.47 1011.99 1011.66 1011.28 1010.76 1010.29 1009.86 1009.96 1009.92 1010.20 1010.13 1010.12 1010.20 1010.21 1010.35 1010.42 1010.44
1022.76 1021.86 1021.63 1020.44 1019.88 1019.60 1018.82 1018.21 1017.70 1017.42 1017.18 1016.73 1015.95 1015.16 1014.74 1014.69 1014.64 1014.62 1014.83 1014.79 1014.77 1014.72 1014.69 1014.54 1014.45 1014.36 1014.25 1013.97 1013.60 1013.17 1013.36 1013.25 1013.18 1012.93 1012.58 1012.61 1012.58 1012.58 1012.26 1011.98 1011.79 1011.38 1010.89 1010.65 1010.60 1010.71 1010.71 1010.56 1010.53 1010.45 1010.51 1010.43 1010.48 1010.67
1022.07 1021.14 1020.18 1019.34 1019.05 1018.85 1018.57 1018.04 1017.62 1017.46 1017.09 1016.49 1016.02 1015.50 1015.14 1014.80 1014.71 1015.12 1014.79 1014.58 1014.54 1014.26 1014.09 1014.10 1014.18 1014.12 1014.04 1013.71 1013.06 1012.74 1012.83 1012.75 1012.70 1012.76 1012.77 1012.85 1012.06 1011.85 1011.83 1011.78 1011.62 1011.53 1011.13 1010.95 1010.95 1010.94 1011.01 1010.88 1010.83 1010.80 1010.87 1010.86 1010.93 1011.01
1021.18 1020.23 1019.55 1018.85 1018.65 1018.48 1018.36 1018.03 1017.65 1017.07 1016.53 1016.14 1016.27 1015.90 1015.42 1015.11 1015.26 1015.07 1014.96 1014.25 1014.18 1014.03 1013.92 1013.80 1013.59 1013.47 1013.37 1013.14 1012.90 1012.77 1012.59 1012.23 1012.13 1012.13 1012.04 1011.81 1011.38 1011.25 1011.06 1011.11 1011.21 1011.20 1011.21 1011.11 1011.12 1011.11 1011.23 1011.19 1011.14 1011.06 1011.25 1011.52 1011.67 1011.64
1020.40 1019.31 1018.93 1018.37 1018.15 1017.96 1017.70 1017.46 1017.00 1016.51 1016.37 1016.47 1016.55 1016.25 1015.76 1015.42 1015.05 1014.74 1014.62 1014.27 1013.95 1013.93 1013.83 1013.57 1013.20 1013.04 1013.14 1013.05 1012.95 1012.88 1012.92 1012.65 1012.59 1012.58 1012.38 1012.21 1011.90 1011.60 1011.13 1011.03 1011.36 1011.36 1011.43 1011.52 1011.39 1011.30 1011.40 1011.52 1011.62 1011.72 1011.94 1012.16 1012.24 1012.10
1018.80 1018.12 1018.07 1017.47 1017.44 1017.24 1016.74 1016.40 1016.27 1015.93 1015.88 1016.17 1016.40 1016.26 1015.90 1015.28 1014.82 1014.58 1014.45 1014.28 1014.16 1014.05 1013.77 1013.49 1013.22 1013.22 1013.08 1013.16 1013.36 1013.48 1013.42 1013.23 1013.06 1013.08 1012.90 1012.73 1012.57 1012.16 1011.87 1011.87 1011.91 1011.94 1011.87 1011.92 1012.13 1012.07 1011.98 1012.18 1012.26 1012.41 1012.59 1012.73 1012.85 1012.92
1016.98 1016.85 1016.95 1016.52 1016.42 1016.41 1016.45 1016.37 1016.31 1016.31 1016.25 1016.16 1015.96 1015.95 1015.52 1015.01 1014.41 1014.14 1014.08 1013.93 1013.71 1013.52 1013.45 1013.20 1013.06 1012.72 1012.46 1012.75 1013.24 1013.70 1014.05 1013.90 1013.44 1013.20 1013.11 1012.99 1012.61 1012.60 1012.58 1012.32 1012.19 1012.31 1012.43 1012.54 1012.76 1013.00 1013.10 1013.20 1013.29 1013.38 1013.44 1013.55 1013.53 1013.45
1015.58 1015.47 1015.37 1015.55 1015.89 1016.08 1016.14 1016.43 1016.54 1016.44 1016.21 1016.07 1015.69 1015.29 1014.95 1014.68 1014.41 1013.73 1012.85 1012.92 1013.13 1013.15 1013.00 1012.84 1013.15 1013.28 1013.42 1013.49 1013.67 1013.99 1014.16 1014.21 1014.01 1013.77 1013.67 1013.58 1013.44 1013.25 1013.01 1012.84 1012.78 1012.83 1013.01 1013.23 1013.41 1013.57 1013.65 1013.71 1013.77 1013.85 1013.95 1013.92 1013.82 1013.73
1014.16 1014.06 1014.19 1014.90 1015.44 1015.81 1016.06 1016.31 1016.22 1015.97 1015.71 1015.54 1015.03 1014.64 1014.38 1014.21 1013.76 1013.08 1012.29 1012.27 1012.53 1012.47 1012.61 1012.74 1013.09 1013.30 1013.61 1013.84 1014.15 1014.37 1014.42 1014.55 1014.53 1014.37 1014.22 1014.04 1013.84 1013.70 1013.59 1013.55 1013.52 1013.55 1013.61 1013.71 1013.87 1013.95 1013.95 1013.93 1014.07 1014.16 1014.11 1013.99 1013.90 1013.86
Wind_Speed
12 12 13 13 14 15 16 16 16 16 17 19 19 20 20 21 20 10 6 3 3 2 7 3 4 3 5 3 2 6 5 6 5 6 3 3 3 2 4 3 4 3 2 3 4 4 1 6 6 5 3 7 5 3
13 13 13 13 14 15 16 15 15 15 16 18 18 19 17 17 17 14 4 4 3 4 7 4 7 10 8 6 5 3 5 2 3 4 2 1 3 3 2 3 5 4 5 3 4 5 4 7 3 2 1 3 5 6
13 13 13 13 14 15 15 15 15 14 15 17 18 18 17 16 15 11 4 4 4 2 6 3 5 7 2 7 6 5 3 1 3 5 4 2 0 4 1 3 1 6 4 2 5 4 5 6 3 5 7 7 8 9
13 13 13 13 14 15 15 15 15 14 15 16 18 18 17 16 15 12 2 3 0 3 1 8 5 5 7 3 4 6 5 3 3 3 2 2 2 4 4 4 3 4 3 2 5 5 10 5 8 8 15 16 15 14
13 13 13 13 14 15 15 15 15 15 15 17 18 18 18 18 17 9 4 4 2 4 2 7 11 7 4 7 7 4 3 3 2 2 2 3 3 2 2 3 2 3 5 3 5 5 6 13 13 17 17 17 14 16
13 13 13 14 14 15 15 14 15 15 16 17 18 18 17 15 15 3 3 1 3 3 3 4 5 6 5 6 7 5 4 3 3 4 4 4 4 5 3 3 3 2 2 6 5 4 10 14 17 13 14 16 17 15
12 13 13 14 15 14 14 14 14 16 17 18 18 18 16 12 2 2 3 4 5 2 2 5 5 6 7 4 2 2 2 4 5 3 3 3 2 4 3 3 2 3 5 6 7 7 9 8 12 18 17 20 19 15
13 13 13 13 14 14 14 14 16 18 19 20 20 19 16 14 6 5 4 9 4 2 1 1 6 4 3 1 2 2 2 2 3 5 1 3 3 3 1 2 4 4 6 7 7 7 13 17 18 18 16 16 16 15
12 13 13 13 13 13 13 13 16 20 22 23 20 15 3 2 0 3 1 6 1 3 1 2 1 2 4 3 2 6 3 2 2 2 1 4 0 1 2 2 6 7 5 11 13 13 15 14 18 17 16 15 13 13
13 12 12 11 11 11 12 13 17 21 26 20 3 3 1 2 1 3 4 3 3 1 0 3 2 3 4 3 4 4 3 1 2 4 2 4 0 3 3 4 7 8 9 9 10 15 17 18 17 19 19 15 12 11
12 11 10 10 10 11 11 12 15 21 9 5 5 3 4 9 3 1 2 2 1 2 3 5 5 2 2 3 3 1 2 1 3 6 4 1 2 3 5 6 7 8 9 11 11 14 15 14 14 16 16 14 12 11
10 9 8 8 10 10 11 12 12 5 1 3 4 5 4 2 1 1 3 3 3 4 2 3 4 4 3 3 4 3 1 2 4 1 3 2 3 4 6 8 9 9 11 12 12 13 11 16 15 13 11 9 9 11
8 7 7 8 9 10 10 11 11 9 8 1 1 2 1 2 3 3 2 3 2 1 2 1 3 1 4 4 2 3 2 4 1 3 3 1 3 6 8 6 11 12 11 11 11 10 9 14 15 11 12 10 8 10
6 6 8 9 10 11 12 11 10 6 2 2 2 5 4 3 4 4 5 4 5 4 3 1 1 1 1 2 2 1 5 2 1 3 1 3 3 6 7 6 7 13 12 11 11 11 13 14 13 13 12 10 10 11
7 8 8 10 8 9 10 10 8 2 2 3 2 3 5 5 4 5 1 3 4 2 3 3 3 3 2 1 1 2 3 2 4 1 2 3 4 6 7 9 9 9 9 10 10 10 13 12 10 12 12 12 12 12
7 9 3 7 9 9 9 8 2 3 3 3 4 3 4 3 5 5 1 2 1 1 2 4 3 4 3 1 1 3 3 3 2 3 4 3 5 6 6 8 7 6 7 8 10 10 11 8 8 8 10 11 11 12
3 2 4 7 11 15 9 1 2 4 3 4 4 3 4 5 6 4 2 3 2 3 1 3 1 2 1 1 2 2 3 4 2 3 3 4 4 6 7 8 9 6 8 9 9 8 8 7 6 8 12 13 11 12
3 1 4 9 9 5 1 2 2 4 5 5 2 5 4 3 3 3 1 1 2 2 3 3 2 1 3 2 1 2 1 1 2 2 4 4 5 6 5 7 6 10 10 9 7 7 5 6 7 6 7 8 9 10
4 5 10 9 4 2 3 3 3 3 5 4 4 4 4 4 3 2 3 1 2 1 4 3 3 3 4 2 4 4 2 3 3 3 3 4 6 6 6 6 4 6 9 9 8 4 4 2 3 3 4 4 5 5
11 13 13 7 1 1 4 4 3 3 4 4 3 4 3 4 4 3 3 2 2 4 1 1 4 4 4 4 3 2 2 2 1 3 4 5 4 5 6 4 4 6 7 8 6 5 2 4 2 2 2 4 4 5
4 3 4 3 2 3 3 4 3 4 4 3 4 3 5 3 3 3 3 2 3 3 3 5 4 4 2 3 3 4 2 2 3 3 3 3 4 3 6 7 10 10 8 5 4 4 2 2 3 2 0 1 1 1
2 6 1 3 2 3 3 4 3 4 2 4 4 3 3 3 3 3 2 3 2 1 2 1 2 2 2 3 4 3 5 4 2 1 1 1 3 3 7 5 7 9 7 4 0 2 1 1 1 3 2 1 2 0
7 1 2 2 2 1 8 2 3 3 3 4 4 4 3 2 3 1 1 1 2 1 1 1 2 2 4 3 2 4 6 5 3 2 2 1 1 4 7 8 7 6 5 5 3 1 2 0 5 4 4 5 4 4
1 2 2 2 3 4 4 3 3 3 3 2 2 4 4 3 3 1 2 2 3 1 2 2 3 3 4 4 2 3 3 3 2 1 2 2 2 5 4 6 5 4 2 4 3 2 4 4 4 5 6 5 5 5
1 4 3 4 3 3 3 3 3 3 3 3 3 4 3 2 1 2 0 3 1 0 1 0 1 1 2 4 4 4 2 2 1 1 5 3 2 5 4 4 4 4 5 9 7 8 5 5 5 5 6 7 5 5
3 4 5 4 3 4 3 3 2 3 2 3 4 3 1 1 2 2 1 2 2 3 3 2 1 3 4 1 5 4 1 4 3 3 4 3 1 4 3 4 4 5 5 4 4 6 5 5 4 6 6 8 10 7
3 5 5 4 2 1 3 3 3 2 3 4 3 4 3 2 2 1 3 3 1 3 3 2 1 3 3 5 7 3 1 6 5 3 4 4 7 5 4 3 2 3 2 4 5 6 5 6 6 5 5 6 7 7
4 4 4 4 3 3 3 2 3 3 3 2 3 3 4 2 1 2 2 4 2 1 1 3 4 4 4 6 4 3 2 2 1 2 3 4 4 2 1 2 3 6 3 3 4 6 6 6 6 7 8 8 7 5
4 4 2 6 4 3 5 6 4 3 0 2 1 2 3 2 2 2 3 3 3 1 3 3 4 2 3 4 3 3 3 4 6 6 6 4 5 5 7 4 4 3 2 3 5 4 6 5 6 7 8 6 4 5
5 5 4 5 4 5 5 5 4 3 3 3 2 4 4 3 3 2 5 6 1 3 4 5 5 4 4 5 3 5 5 4 4 3 2 4 4 4 4 5 5 4 3 6 5 9 14 10 9 9 9 6 5 5
4 5 4 4 3 1 1 2 1 2 1 2 3 4 8 6 3 4 4 5 5 4 4 5 5 5 2 6 5 5 4 5 5 7 6 3 5 6 4 5 4 5 6 8 8 8 8 7 6 7 8 8 8 6
3 6 4 4 3 3 1 1 1 2 2 2 3 3 3 1 3 3 3 3 3 4 6 4 4 4 4 6 6 6 7 3 4 5 7 5 5 5 5 5 5 6 7 7 6 6 7 7 6 6 6 8 8 7
5 6 4 4 1 2 0 1 2 3 3 2 3 2 1 4 3 3 2 2 3 2 6 5 6 7 7 8 7 5 6 5 6 7 8 8 8 9 5 5 5 6 6 5 5 5 6 7 6 6 6 6 6 6
Wind_Direction
314 313 317 321 325 328 330 330 330 331 336 341 345 346 350 354 355 1 279 325 62 293 279 280 8 18 359 63 110 278 25 351 27 50 66 315 46 317 43 290 337 90 29 330 11 9 303 330 343 60 278 323 295 292
310 311 312 315 319 323 323 324 324 326 330 335 339 341 344 347 353 359 310 325 328 172 242 246 252 245 202 207 152 340 183 247 186 80 33 61 358 356 145 296 339 11 153 212 156 223 234 303 85 268 259 281 297 287
306 306 308 310 314 318 319 319 320 321 323 328 333 334 337 339 345 356 279 293 349 339 306 6 248 258 194 196 162 115 315 206 0 176 164 192 277 125 294 269 345 329 31 79 10 230 306 302 279 308 319 279 284 291
302 305 307 308 312 315 315 316 318 317 318 322 328 328 329 331 332 340 293 279 193 280 36 287 4 325 289 132 138 151 179 13 110 77 116 150 185 162 212 203 161 201 25 333 268 306 320 259 314 303 300 301 299 296
299 302 304 307 311 314 313 313 315 314 313 317 321 322 323 326 326 314 209 247 242 131 245 284 311 258 203 153 158 186 121 105 78 25 67 237 223 70 333 64 261 182 181 146 238 231 223 278 297 299 304 299 299 301
298 302 306 307 310 310 309 311 312 309 309 311 312 311 313 322 333 346 27 316 13 40 86 318 288 307 212 178 182 206 197 173 142 155 223 257 248 120 134 212 255 178 192 181 249 243 267 275 289 294 298 293 292 291
299 302 304 307 308 308 309 310 310 307 307 307 304 302 303 310 309 187 207 245 14 3 81 315 307 268 203 180 240 237 176 202 154 192 224 199 269 88 125 210 210 244 253 257 260 283 290 276 280 295 291 289 288 283
300 300 303 306 305 307 309 311 310 309 308 303 300 298 299 294 249 296 246 241 148 89 80 268 272 340 159 265 288 193 208 113 236 197 15 123 20 62 309 312 313 308 303 290 268 236 258 277 284 284 281 285 287 286
298 301 303 304 304 307 310 312 313 312 309 305 303 300 324 59 341 245 136 114 128 128 168 311 265 304 360 332 349 343 72 22 300 120 32 88 360 204 224 278 307 292 263 274 287 288 290 285 289 294 292 288 280 277
297 301 302 302 304 307 311 316 320 318 314 313 30 34 4 291 136 70 20 28 7 297 119 224 253 288 80 16 332 11 15 302 13 266 65 74 51 234 239 258 268 284 279 284 294 302 307 305 304 303 304 297 281 268
297 298 302 303 308 311 315 322 329 326 351 18 3 331 287 302 26 8 278 143 202 261 212 233 197 206 304 99 233 148 244 306 26 271 105 9 5 293 298 311 293 288 285 278 264 268 275 279 289 298 303 308 302 275
297 300 302 304 308 312 320 325 341 360 27 268 279 280 290 319 5 316 253 274 192 236 239 179 244 190 279 101 76 327 195 40 248 257 82 78 259 282 318 296 303 301 302 303 299 295 308 320 310 304 296 299 316 314
305 305 301 302 304 305 310 317 325 311 301 182 200 266 211 265 30 215 230 250 246 293 259 343 317 221 7 58 65 58 352 243 65 57 136 172 269 302 293 307 322 317 311 306 310 328 324 323 321 324 313 306 304 311
298 300 302 302 297 296 297 304 324 343 318 271 214 314 174 247 244 206 223 236 245 159 224 114 287 97 257 57 136 83 249 347 279 50 56 266 269 288 302 311 324 320 319 321 326 334 329 338 331 338 340 350 353 355
305 305 308 296 301 302 300 304 310 322 281 273 281 242 231 244 264 262 206 31 349 328 66 26 12 84 325 49 197 53 293 227 43 38 248 260 273 303 320 324 324 327 335 326 334 335 332 338 341 358 355 5 5 4
313 304 269 300 324 318 315 318 286 194 258 248 246 296 295 15 331 332 346 113 262 122 28 56 25 26 313 139 323 266 350 55 294 250 249 273 305 311 311 308 312 303 303 319 319 322 332 343 353 345 358 9 4 9
346 272 338 335 325 307 283 163 285 230 248 274 264 254 231 257 252 256 153 252 147 76 156 98 89 230 344 7 245 102 168 213 238 274 264 243 276 300 313 311 322 319 335 323 324 321 324 323 12 12 10 6 4 7
250 220 340 342 344 309 190 192 261 278 259 255 252 271 274 256 292 322 328 294 103 168 109 195 143 72 233 249 287 269 297 280 257 272 282 300 322 323 307 305 305 321 316 317 312 307 306 352 29 18 356 351 5 9
328 310 307 320 343 312 288 241 178 261 262 276 292 279 283 278 267 248 276 335 207 112 98 83 149 200 245 224 178 222 211 188 241 281 274 316 338 330 314 320 314 302 301 311 310 288 284 312 70 50 32 12 7 352
286 282 281 277 156 284 278 262 151 254 274 265 291 292 292 250 263 285 292 282 152 104 341 217 213 229 193 242 201 201 207 225 241 326 326 326 330 330 306 316 290 305 309 319 305 290 331 352 23 145 80 80 49 358
315 309 334 135 230 205 269 299 279 226 280 290 277 335 270 306 306 301 279 160 72 128 222 221 231 257 126 158 137 120 303 236 238 201 234 313 358 329 315 338 331 319 317 314 303 282 24 261 285 338 342 164 149 91
292 351 322 195 280 258 240 250 231 290 268 250 306 212 261 266 265 256 242 84 182 201 180 177 244 255 237 223 244 122 245 279 280 222 297 141 91 308 288 283 309 302 296 276 241 179 7 341 342 13 30 14 159 269
318 330 253 262 290 317 260 276 247 253 265 276 316 309 274 286 245 17 52 132 228 276 189 98 331 300 275 275 177 248 241 196 190 221 274 299 88 261 281 283 269 268 325 334 350 205 155 32 46 19 6 40 66 57
49 312 290 263 198 263 299 258 233 266 266 263 264 299 302 271 314 339 231 217 233 348 42 22 33 358 347 19 355 289 290 166 201 256 247 299 290 269 266 280 291 293 281 276 313 63 88 106 98 54 40 63 62 65
292 282 131 269 256 248 250 265 244 252 275 318 276 262 269 282 269 279 350 313 350 285 229 246 95 291 329 311 305 298 352 191 257 257 266 228 293 314 324 338 327 4 347 41 33 51 39 51 67 63 55 56 59 51
248 226 170 232 215 209 252 274 9 344 275 269 270 270 312 273 281 38 352 276 193 212 217 200 319 336 327 300 303 322 298 6 19 305 339 33 325 275 284 328 16 349 356 48 57 52 43 45 67 81 64 57 47 76
249 249 236 229 247 285 296 278 276 263 271 261 272 329 291 247 64 286 306 300 263 239 196 178 222 279 298 301 304 298 57 193 190 197 180 214 249 257 246 235 160 243 12 51 58 55 41 26 35 61 69 67 52 56
260 271 225 221 210 216 244 256 257 248 250 250 19 287 315 44 45 261 187 253 190 216 267 285 275 254 270 274 281 315 317 358 184 264 304 229 233 330 329 156 127 112 92 63 65 68 62 49 33 44 82 70 60 39
243 244 234 256 242 220 217 209 234 234 149 69 256 268 261 305 336 301 310 274 223 236 298 304 304 317 335 10 44 51 42 39 73 63 67 36 2 342 348 71 139 124 93 52 23 52 67 68 59 65 81 83 71 53
241 182 222 215 204 220 225 204 231 196 155 151 231 300 308 288 266 321 337 337 213 240 252 252 255 279 257 180 133 57 17 15 56 94 71 17 319 302 32 51 58 64 67 71 53 48 46 56 58 55 58 46 41 47
264 155 226 221 235 79 269 280 341 335 343 262 227 234 256 266 267 255 244 246 246 267 287 295 316 315 310 137 130 111 57 347 25 33 35 358 41 44 29 41 50 68 64 74 69 69 67 58 58 57 51 44 35 48
208 207 197 219 177 234 164 82 334 292 249 253 265 237 266 198 226 275 233 199 226 227 239 229 125 82 61 70 67 70 87 61 33 31 33 31 37 30 29 33 44 72 73 73 76 79 79 83 79 75 60 41 25 18
213 233 213 114 127 2 127 51 251 265 211 239 247 242 181 194 242 265 301 174 185 154 115 102 107 113 116 111 117 107 85 83 77 59 53 52 63 57 48 39 50 59 69 78 76 79 72 71 81 99 84 53 25 19